Vertical_Velocity
-0 0 0 0 -1 -1 -1 -1 -2 -2 -1 -1 -0 -0 -1 -0 -1 -1 -1 -2 0 -2 -1 -0 -1 -2 -2 11 -8 -5 8 -10 23 -2 31 -7 2 -5 -10 -11 6 -12 3 0 1
-1 -1 -1 -0 -0 0 0 -0 -1 -1 -1 -1 -1 0 -0 -1 -1 -1 -1 -1 -0 -2 -0 0 1 1 2 6 -12 12 6 -1 6 -15 -9 -27 25 -2 -3 -4 -5 12 -3 -5 2
-0 0 -0 -0 0 -0 -1 -1 -1 -0 -0 -1 -1 -0 -0 -0 1 -10 -2 -0 -0 -1 -1 1 5 -1 -4 16 10 -1 0 -1 -4 -1 -8 -17 17 1 -0 11 7 -4 -1 -2 -1
0 0 -0 -0 -0 -1 -0 -1 -0 -0 -0 -1 -0 -0 -0 -1 20 -5 -2 -1 -0 -1 -2 -1 -0 2 -5 6 -5 1 -5 -2 -2 2 -3 -23 0 16 3 -6 20 -6 1 1 -3
-0 -0 -0 -0 -1 -1 -1 -0 -0 -1 -1 -1 -1 0 -0 -0 -2 -2 -2 -1 0 -2 -2 0 2 0 23 -9 -2 -13 -4 -3 -1 1 0 -6 -4 4 1 -12 -2 -0 0 -4 11
-1 -1 -1 -1 -0 -1 -0 -0 -1 -1 -0 -1 -1 -0 -0 8 3 -2 -2 -1 -0 -1 -1 -1 0 2 24 -0 25 4 0 4 -1 13 -5 -5 2 -3 7 -5 -2 -2 0 1 4
-1 -1 -1 -1 -1 -1 -1 -1 -1 -1 -1 -1 0 -0 0 -7 -2 -2 -1 -1 -1 -0 2 0 -5 -16 12 2 -17 -8 -11 -3 -4 2 5 4 -4 14 22 -11 -2 -1 0 6 -5
-0 -1 -1 -1 -1 -1 -1 -1 -1 -2 -1 -1 -0 -1 7 -2 -2 -1 -2 -1 0 -0 -4 3 -4 -4 -19 -9 -1 -13 28 4 0 -1 -5 -4 7 -0 40 -5 0 1 1 -1 -10
-1 -1 -1 -1 -1 -1 -1 -1 -1 -2 -1 -1 -3 -0 6 -2 -2 -3 -2 3 -1 -1 -2 -2 -5 -3 0 -3 11 -22 12 27 -8 -4 -1 3 -1 -45 -10 8 15 -13 10 -0 -2
-1 -1 -1 -0 0 -1 -1 -1 -1 -1 -1 -3 -2 -8 -8 16 -2 -2 -1 -2 1 -1 -1 -2 -5 3 -6 3 3 23 -14 -8 10 -4 -0 0 6 -3 -3 -18 -2 13 6 -6 4
-0 -1 -1 0 -0 -1 -2 -4 -5 -9 -1 4 15 -10 -7 2 -6 -3 -2 -2 -1 -1 5 -6 -2 -6 5 -1 24 -22 7 -12 3 -14 3 -1 -6 -1 0 -3 -2 0 -15 5 2
-1 -0 -1 -1 -0 -1 -1 -4 -0 -7 18 -7 -5 -6 -6 -1 6 -3 -2 0 -4 -1 -4 -4 -6 9 13 17 2 4 -4 7 -16 -10 -4 5 -10 9 -6 -6 -2 -0 19 11 -3
-1 -1 -0 -1 -1 -1 -1 -3 -2 -4 2 -13 -1 8 1 -11 15 -5 -6 -1 -7 8 -11 7 30 26 -14 -8 -0 -3 5 24 12 -8 -11 -4 -12 -4 -1 -4 -7 1 -26 5 -4
-0 -1 -1 -1 -1 -2 1 -1 -3 -1 8 -5 -4 7 -8 -5 9 -5 -10 4 -13 9 3 -2 18 -15 -3 -1 -2 10 -2 -14 2 -11 21 -17 -6 13 -1 -1 -4 -3 -1 16 8
-1 -1 -2 -1 0 -1 -9 0 -4 4 10 -2 6 -15 3 11 -12 -8 -7 -7 13 -7 -10 2 -2 -5 4 -5 2 -8 -0 -7 5 -3 5 18 1 -29 17 -5 -1 -0 0 14 -15
-0 -0 -1 -1 -1 0 -2 -0 -2 -1 11 -7 0 -4 -2 -5 2 -7 -1 -12 8 -6 -12 16 -13 10 9 4 -12 5 -10 -2 -5 4 10 -18 8 -1 32 2 4 -7 -2 -9 -0
-1 0 -2 -1 -6 0 -2 2 6 10 -12 8 -5 -7 -9 1 2 -3 -2 -6 19 -0 -4 -8 2 -12 -13 -7 9 -2 6 4 12 13 -15 -6 5 -5 14 46 -5 -8 -7 -1 -12
-3 -1 1 -0 -2 -0 -1 -0 17 3 3 -6 -11 -2 8 -17 10 -1 10 21 -22 -14 17 0 30 -11 -6 -13 20 -16 -0 7 -1 4 4 -10 -1 -3 -24 11 10 -4 -7 -1 -2
-4 -3 -1 1 -1 -0 0 5 -27 15 8 -13 -2 4 4 -6 8 -11 -10 31 19 -4 14 20 0 -20 7 -2 -8 7 -3 -12 12 -7 17 -5 -42 15 0 11 4 8 -1 0 -8
1 -0 1 1 2 1 -1 -13 2 -13 3 1 -4 -7 15 -0 -14 -11 18 3 15 -12 -19 13 -5 -5 14 -10 -9 2 -26 0 3 4 -2 -4 -10 28 8 -13 -16 3 -0 -7 2
0 2 -11 1 4 3 -11 -14 -6 -4 -14 -0 -5 13 1 7 -9 25 14 -1 -19 6 -9 9 0 27 -15 -8 6 6 21 -33 30 -4 6 3 11 -38 65 2 -11 11 -4 34 -14
1 7 -4 3 2 -1 -4 -9 19 9 -10 9 -6 1 4 4 4 -1 1 10 -7 3 12 36 2 13 16 -10 12 43 -28 1 32 10 -13 -15 11 -28 31 -11 -19 25 -8 -9 2
1 7 -7 5 -4 1 -8 -4 22 -8 -6 -6 -6 2 -11 1 5 -11 -2 -3 -9 -11 15 27 1 4 -4 -9 16 -0 -3 26 -28 0 -3 7 13 -2 -25 32 11 -23 1 -8 -10
-1 6 -2 -4 -1 30 28 -0 -1 -11 20 -3 -5 6 -5 6 -17 12 -15 1 -13 3 -9 -17 -12 -0 1 25 -7 -21 6 -9 5 39 -12 -2 25 -11 -14 -33 11 -8 9 1 -6
-6 16 15 13 -13 -1 2 23 -12 10 -16 15 4 15 -3 1 8 -8 -1 20 -17 -5 -12 -5 -1 1 -6 -6 -1 -1 -3 -27 -12 -13 27 -4 -17 43 12 -65 5 -4 12 -22 -16
-2 -2 -4 -8 -7 10 -1 -11 4 11 -6 1 1 -10 6 -6 5 14 9 -7 -12 24 -11 1 -10 -15 -17 -3 -6 0 39 -14 -13 1 -11 -11 23 2 39 30 -1 7 -15 -4 8
1 -12 -0 1 -3 8 -2 -4 -2 4 16 -4 -1 4 15 -4 -9 16 -13 -6 24 -6 5 5 4 10 -7 20 1 7 25 25 53 -12 -16 20 11 -6 6 7 7 -6 8 -40 28
Height
3158 3157 3156 3156 3155 3154 3154 3153 3153 3153 3153 3154 3154 3154 3155 3156 3157 3159 3159 3161 3163 3164 3167 3168 3170 3170 3172 3178 3176 3173 3174 3172 3174 3172 3175 3180 3182 3182 3183 3183 3184 3185 3185 3185 3182
3158 3157 3156 3155 3154 3154 3153 3153 3152 3152 3152 3153 3153 3153 3154 3155 3156 3158 3159 3160 3161 3164 3166 3168 3171 3172 3176 3179 3176 3175 3173 3174 3173 3173 3171 3180 3182 3184 3185 3185 3185 3186 3184 3182 3183
3159 3157 3156 3155 3155 3154 3153 3152 3152 3151 3151 3151 3152 3153 3154 3155 3157 3156 3157 3158 3160 3163 3165 3168 3174 3176 3178 3179 3176 3173 3174 3175 3174 3174 3175 3179 3180 3184 3185 3184 3186 3186 3183 3183 3186
3159 3158 3157 3156 3155 3153 3152 3152 3151 3150 3150 3150 3150 3151 3153 3155 3162 3154 3156 3158 3160 3162 3165 3167 3173 3177 3177 3177 3178 3177 3175 3175 3174 3174 3174 3175 3176 3183 3184 3182 3187 3185 3185 3186 3189
3159 3158 3157 3156 3155 3154 3152 3152 3151 3150 3149 3149 3149 3150 3152 3155 3155 3153 3155 3157 3159 3162 3164 3169 3174 3177 3177 3178 3178 3175 3175 3174 3174 3173 3174 3174 3176 3180 3183 3186 3187 3187 3188 3190 3191
3159 3159 3158 3157 3155 3154 3152 3151 3150 3150 3149 3148 3149 3149 3152 3156 3153 3153 3154 3156 3159 3161 3164 3169 3175 3177 3177 3178 3178 3174 3178 3177 3175 3176 3174 3175 3177 3180 3184 3185 3188 3188 3191 3193 3193
3159 3158 3157 3156 3155 3153 3152 3151 3151 3150 3149 3148 3148 3149 3151 3152 3151 3152 3153 3155 3157 3160 3165 3168 3171 3174 3176 3177 3177 3177 3178 3176 3173 3173 3173 3177 3178 3179 3182 3184 3188 3190 3192 3194 3195
3159 3158 3157 3156 3154 3153 3152 3151 3151 3150 3149 3148 3148 3149 3153 3149 3150 3152 3153 3155 3157 3159 3161 3165 3166 3172 3175 3175 3176 3177 3175 3175 3174 3173 3171 3174 3176 3175 3178 3185 3187 3188 3192 3194 3195
3159 3157 3156 3155 3154 3153 3152 3151 3151 3150 3150 3150 3150 3152 3153 3150 3151 3152 3154 3158 3157 3158 3160 3162 3165 3171 3174 3174 3174 3174 3172 3171 3173 3173 3174 3174 3169 3173 3177 3182 3184 3186 3191 3194 3194
3158 3157 3155 3154 3153 3152 3152 3152 3152 3151 3151 3151 3152 3154 3153 3155 3152 3152 3152 3155 3158 3158 3161 3163 3166 3170 3171 3171 3167 3166 3169 3170 3172 3174 3174 3175 3174 3174 3176 3178 3175 3183 3189 3193 3194
3157 3156 3155 3153 3152 3152 3152 3152 3156 3155 3153 3154 3156 3154 3153 3153 3151 3152 3152 3155 3158 3160 3163 3164 3167 3166 3166 3168 3167 3169 3168 3171 3171 3173 3175 3175 3174 3174 3173 3175 3177 3180 3184 3190 3193
3156 3154 3153 3153 3152 3151 3151 3153 3153 3155 3156 3152 3151 3151 3152 3153 3154 3153 3152 3158 3159 3160 3162 3165 3163 3164 3165 3166 3168 3169 3170 3170 3172 3172 3173 3173 3172 3172 3168 3169 3174 3172 3181 3187 3191
3154 3153 3152 3151 3151 3151 3151 3152 3153 3153 3154 3154 3153 3154 3153 3153 3155 3153 3153 3157 3158 3160 3161 3160 3159 3161 3164 3166 3168 3167 3167 3167 3170 3171 3170 3170 3168 3166 3167 3165 3168 3172 3175 3184 3187
3152 3151 3150 3150 3151 3150 3151 3152 3153 3154 3153 3154 3154 3154 3153 3153 3155 3153 3153 3158 3158 3158 3159 3160 3158 3162 3164 3164 3166 3164 3165 3167 3169 3171 3166 3167 3163 3161 3162 3161 3162 3166 3171 3176 3182
3149 3148 3148 3147 3149 3149 3149 3152 3154 3154 3146 3152 3153 3151 3153 3154 3153 3153 3153 3155 3156 3157 3159 3157 3158 3160 3161 3162 3164 3163 3164 3166 3166 3167 3165 3163 3164 3155 3156 3156 3155 3158 3164 3168 3177
3145 3145 3144 3145 3146 3147 3148 3151 3155 3158 3145 3148 3150 3150 3152 3152 3153 3153 3153 3154 3155 3156 3156 3155 3157 3158 3159 3160 3161 3162 3164 3164 3163 3162 3160 3155 3155 3150 3147 3153 3153 3153 3158 3164 3172
3141 3140 3140 3141 3143 3144 3146 3150 3157 3148 3145 3146 3148 3149 3149 3150 3152 3152 3153 3153 3152 3153 3152 3153 3154 3156 3157 3158 3159 3161 3160 3157 3155 3151 3145 3144 3149 3147 3148 3143 3149 3150 3153 3157 3164
3136 3136 3136 3137 3139 3141 3145 3150 3148 3140 3141 3143 3145 3147 3148 3149 3150 3151 3151 3150 3152 3151 3148 3148 3149 3151 3153 3155 3154 3156 3156 3147 3142 3134 3146 3147 3143 3144 3144 3146 3146 3147 3150 3153 3159
3130 3130 3131 3132 3134 3137 3142 3144 3140 3138 3139 3142 3144 3145 3145 3147 3148 3149 3149 3147 3148 3151 3150 3144 3147 3149 3151 3152 3154 3152 3152 3151 3145 3140 3135 3137 3143 3143 3141 3141 3144 3146 3148 3147 3153
3125 3125 3126 3127 3129 3133 3137 3135 3136 3137 3137 3140 3140 3141 3141 3143 3146 3146 3145 3147 3149 3150 3150 3148 3148 3146 3148 3151 3151 3151 3151 3152 3147 3142 3137 3131 3139 3133 3138 3139 3143 3145 3145 3148 3151
3121 3123 3119 3123 3125 3128 3129 3131 3133 3134 3136 3139 3138 3139 3140 3141 3143 3142 3143 3146 3148 3149 3150 3148 3148 3146 3148 3146 3146 3148 3149 3150 3149 3148 3141 3131 3134 3140 3141 3140 3141 3141 3145 3145 3148
3115 3121 3117 3119 3122 3123 3125 3128 3131 3132 3134 3135 3136 3138 3139 3141 3142 3142 3143 3144 3145 3148 3148 3148 3145 3141 3141 3142 3143 3144 3146 3144 3140 3140 3142 3142 3135 3135 3144 3143 3142 3139 3141 3142 3141
3110 3115 3112 3114 3117 3119 3122 3124 3126 3129 3130 3133 3135 3136 3138 3140 3142 3141 3142 3142 3145 3147 3147 3147 3145 3142 3138 3139 3138 3140 3141 3143 3142 3141 3139 3138 3134 3139 3144 3146 3142 3142 3138 3138 3138
3108 3112 3111 3108 3111 3116 3118 3119 3122 3124 3127 3130 3132 3134 3136 3138 3139 3140 3141 3141 3143 3144 3143 3145 3145 3144 3138 3133 3138 3140 3139 3137 3135 3132 3135 3134 3135 3135 3134 3142 3141 3140 3138 3135 3134
3106 3108 3106 3107 3107 3110 3113 3116 3118 3120 3124 3126 3129 3130 3133 3135 3136 3138 3139 3139 3140 3140 3141 3143 3142 3140 3137 3135 3135 3135 3134 3136 3134 3133 3129 3133 3132 3135 3132 3135 3135 3136 3134 3134 3135
3100 3101 3100 3100 3104 3107 3109 3110 3113 3116 3119 3122 3125 3128 3130 3132 3133 3134 3135 3137 3138 3137 3138 3139 3138 3137 3135 3132 3131 3130 3131 3129 3132 3131 3128 3130 3134 3131 3130 3129 3126 3130 3133 3133 3134
3096 3096 3098 3098 3101 3104 3105 3108 3110 3113 3116 3119 3123 3125 3126 3128 3131 3132 3133 3134 3134 3135 3136 3136 3134 3133 3128 3127 3128 3125 3126 3125 3127 3127 3127 3126 3129 3118 3124 3124 3124 3127 3129 3129 3129